{"data":{"norad_id":53392,"epoch":"2026-05-25T03:30:20.496384Z","epoch_age_seconds":76523,"freshness":"FRESH","line1":"1 53392U 22097E   26145.14607056 -.00000858  00000+0 -35803-4 0  9994","line2":"2 53392  53.2128 140.8924 0001027  58.2816 301.8276 15.08848208210210","mean_motion":15.08848208,"eccentricity":0.0001027,"inclination_deg":53.2128,"raan_deg":140.8924,"arg_perigee_deg":58.2816,"mean_anomaly_deg":301.8276,"bstar":-3.5803e-5,"rev_number":21021,"period_min":95.43703550596,"perigee_km":539.00783676614,"apogee_km":540.42876424486,"semimajor_km":6917.8553005055,"source":"CELESTRAK","updated_at":"2026-05-25T13:38:17.394748Z"}}